Tracking 18784 objects as of 16-August-2017
HD Live streaming from Space Station
objects crossing your sky now

COSMOS 2286

Track COSMOS 2286 now!
COSMOS 2286 is classified as:


NORAD ID: 23194
Int'l Code: 1994-048A
Perigee: 3,754.9 km
Apogee: 36,658.0 km
Inclination: 67.7 °
Period: 718.7 minutes
Semi major axis: 26577 km
RCS: 14.1879 m2 (large)
Launch date: August 5, 1994
Source: Commonwealth of Independent States (former USSR) (CIS)
Launch site: PLESETSK MISSILE AND SPACE COMPLEX (PKMTR)
Your satellite tracking list
Your tracking list is empty





NASA's NSSDC Master Catalog

Two Line Element Set (TLE):
1 23194U 94048A   17227.56427023 -.00000700 +00000-0 +00000-0 0  9990
2 23194 067.7192 006.7141 6190033 179.9848 180.2708 02.00369724168734
Source of the keplerian elements: AFSPC